[[{"header":{"parameterUnit":"m.s-1","parameterCategory":1,"la1":30.2991,"la2":30.254,"lo1":-89.0895,"lo2":-89.0444,"dy":0.0017,"dx":0.0017,"nx":28,"ny":28,"refTime":"2025-04-06T21:00:00:Z","depth":0,"parameterNumber":2,"parameterNumberName":"U-component_of_WINDS"},"data":[0,0,0,0,0,0,0,0,0,0,0,0,0,0,0,0,0,0,0,0,0,0,0,0,0,0,0,0,0,0,0,0,0,0,0,0,0,0,0,0,0,0,0,0,0,0,0,0,0,0,0,0,0,0,0,0,0,0,3.4262,3.4261,0,3.4189,3.4188,3.4187,3.4087,3.4086,3.4084,3.4082,3.4006,3.4006,3.4006,0,0,0,0,0,0,0,0,0,0,0,0,0,3.4315,3.4315,3.4262,3.4261,3.426,3.4189,3.4188,3.4187,3.4088,3.4086,3.4084,3.4082,3.4007,3.4006,3.4006,0,0,0,0,0,0,0,0,0,0,0,0,0,3.4272,3.4315,3.4262,3.4202,3.4196,3.4189,3.4188,3.4187,3.4088,3.4086,3.4083,3.4081,3.4007,3.4006,3.4005,3.4052,0,0,3.4003,3.4003,0,0,0,0,0,0,0,0,3.4275,3.427,3.4212,3.4206,3.4199,3.4145,3.4179,3.4141,3.4089,3.4129,3.4082,3.4079,3.4054,3.405,3.4041,3.4048,3.4045,3.4003,3.4003,3.4003,3.4002,0,0,0,0,0,0,0,3.4278,3.4273,3.4233,3.4211,3.4204,3.4179,3.417,3.4171,3.4107,3.4125,3.4118,3.4111,3.4051,3.4042,3.4039,3.4044,3.4003,3.4003,3.4002,3.4002,3.4085,3.4088,0,0,0,0,0,0,3.429,3.4276,3.4235,3.4231,3.4232,3.418,3.417,3.4165,3.4106,3.4095,3.4113,3.4106,3.4045,3.404,3.4036,3.4087,3.4003,3.4002,3.4002,3.4083,3.4086,3.4089,0,0,0,0,0,0,3.4292,3.4287,3.4238,3.4252,3.4243,3.4182,3.4177,3.4165,3.4156,3.4097,3.4085,3.4117,3.4043,3.4037,3.4049,3.4083,3.4002,3.4001,3.408,3.4084,3.4087,3.4188,0,0,0,0,0,0,3.4294,3.4289,3.4305,3.4253,3.4243,3.4253,3.4179,3.4165,3.4156,3.4146,3.4097,3.4087,3.404,3.405,3.4048,3.408,3.4,3.4076,3.4082,3.4086,3.4182,3.4195,3.4207,0,0,0,0,0,3.4296,3.4336,3.4307,3.4302,3.4263,3.4255,3.4249,3.4196,3.4159,3.4175,3.4137,3.4088,3.4079,3.4052,3.4049,3.4081,3.4074,3.408,3.4086,3.4176,3.4193,3.4207,0,0,0,0,0,0,3.4394,3.4328,3.4295,3.4319,3.4294,3.4238,3.4257,3.4215,3.4198,3.419,3.4124,3.4114,3.4134,3.4109,3.408,3.4124,3.4069,3.4075,3.4139,3.4154,3.4167,3.4172,3.4,0,0,0,0,0,3.4418,3.4418,3.436,3.4387,3.4376,3.432,3.4314,3.4275,3.4245,3.4234,3.4196,3.417,3.4161,3.4156,3.4144,3.4178,3.4166,3.4199,3.4211,3.4222,3.4227,3.4244,3.4258,3.4108,3.4108,3.4108,0,0,3.4469,3.4433,3.4436,3.4406,3.4382,3.4383,3.4311,3.4314,3.4314,3.4234,3.4243,3.4215,3.4181,3.4204,3.4212,3.4184,3.4266,3.4229,3.4238,3.4238,3.4252,3.4266,3.4279,3.4112,3.4112,3.4111,0,0,3.4561,3.4534,3.4554,3.4531,3.4496,3.4458,3.4463,3.4414,3.4393,3.4401,3.4341,3.434,3.4326,3.4304,3.4291,3.4378,3.4332,3.4376,3.4442,3.4459,3.447,3.4481,3.4512,3.4524,3.4382,3.4382,3.4382,0,3.4629,3.4627,3.457,3.4578,3.4566,3.4495,3.4515,3.4495,3.4458,3.4452,3.442,3.4402,3.4374,3.4391,3.4413,3.4405,3.4409,3.4381,3.4474,3.4483,3.4492,3.4521,3.4533,3.4387,3.4387,3.4386,3.4386,0,3.4712,3.4713,3.4733,3.4699,3.4691,3.4705,3.4649,3.4647,3.461,3.4575,3.4585,3.4549,3.453,3.4531,3.4493,3.4544,3.4527,3.4486,3.443,3.4513,3.4539,3.455,3.4395,3.4393,3.4392,3.439,0,0,3.4863,3.4799,3.4807,3.4792,3.4747,3.4746,3.4758,3.4739,3.4739,3.4716,3.4724,3.4715,3.4676,3.4662,3.4622,3.4637,3.4709,3.4593,3.4591,3.4616,3.4763,3.4794,3.4808,3.4678,3.468,3.4682,3.4766,0,3.4948,3.4963,3.4912,3.4941,3.4941,3.4874,3.4883,3.4858,3.4826,3.4822,3.4786,3.4781,3.4731,3.4722,3.4734,3.4697,3.4737,3.4691,3.4685,3.4686,3.4696,3.4822,3.4855,3.4936,3.4776,3.4777,3.4778,0,3.5048,3.5031,3.506,3.5015,3.5013,3.5023,3.5003,3.4999,3.4969,3.4945,3.493,3.4884,3.4892,3.4839,3.4849,3.4819,3.4814,3.4796,3.4798,3.4795,3.4737,3.4823,3.496,3.4973,3.4794,3.4793,3.4792,0,3.5156,3.514,3.5156,3.5144,3.5093,3.5101,3.508,3.5047,3.504,3.5022,3.5017,3.5,3.4991,3.498,3.493,3.4896,3.4947,3.489,3.4928,3.4929,3.4941,3.4941,3.508,3.4938,3.4938,3.4938,3.4937,0,3.5256,3.5276,3.5204,3.5214,3.5235,3.5176,3.5199,3.5171,3.5143,3.5146,3.5087,3.5091,3.5025,3.5023,3.4984,3.4999,3.4995,3.4977,3.4966,3.4982,3.4985,3.4978,3.4971,3.4941,3.494,3.4939,3.4939,0,3.538,3.5332,3.5345,3.5295,3.5283,3.5301,3.5259,3.5266,3.5231,3.5236,3.5234,3.518,3.5173,3.5123,3.5105,3.5079,3.5109,3.5088,3.512,3.5113,3.5154,3.5151,3.5293,3.5309,3.5158,3.5159,3.516,0,3.5447,3.5461,3.5413,3.5412,3.5393,3.5391,3.5383,3.5327,3.5321,3.5289,3.53,3.5289,3.5277,3.5271,3.523,3.5216,3.5194,3.5245,3.5191,3.5208,3.5195,3.5195,3.5197,3.5256,3.5258,3.526,3.5261,0,3.5571,3.5547,3.5538,3.5522,3.5515,3.5499,3.548,3.5482,3.542,3.5417,3.541,3.5401,3.5384,3.5374,3.5354,3.5331,3.5287,3.5278,3.5287,3.5303,3.5321,3.5313,3.5151,3.5275,3.5274,3.5273,3.5272,3.5271,3.5668,3.5678,3.5647,3.5639,3.5619,3.5603,3.5608,3.5574,3.5568,3.5549,3.5516,3.5515,3.5485,3.5453,3.5435,3.5433,3.5406,3.5418,3.5421,3.5425,3.5434,3.5322,3.5429,3.5429,3.5428,3.5428,3.5428,0,3.5789,3.5766,3.576,3.5736,3.573,3.5689,3.5666,3.5664,3.5664,3.564,3.563,3.5623,3.5614,3.5572,3.5559,3.5565,3.5544,3.5563,3.5562,3.5558,3.5458,3.5453,3.5581,3.5581,3.5581,3.5581,3.5581,3.5581,3.5852,3.5867,3.584,3.5844,3.582,3.5819,3.581,3.5795,3.5775,3.577,3.5762,3.5736,3.5705,3.5689,3.5679,3.5667,3.5665,3.5691,3.5673,3.558,3.5565,3.5551,3.5546,3.5691,3.5691,3.5773,3.5774,3.5774]},{"header":{"parameterUnit":"m.s-1","parameterCategory":1,"la1":30.2991,"la2":30.254,"lo1":-89.0895,"lo2":-89.0444,"dy":0.0017,"dx":0.0017,"nx":28,"ny":28,"refTime":"2025-04-06T21:00:00:Z","depth":0,"parameterNumber":3,"parameterNumberName":"V-component_of_WINDS"},"data":[0,0,0,0,0,0,0,0,0,0,0,0,0,0,0,0,0,0,0,0,0,0,0,0,0,0,0,0,0,0,0,0,0,0,0,0,0,0,0,0,0,0,0,0,0,0,0,0,0,0,0,0,0,0,0,0,0,0,-4.9418,-4.942,0,-4.9541,-4.9543,-4.9544,-4.9552,-4.9551,-4.9549,-4.9548,-4.9669,-4.9673,-4.9678,0,0,0,0,0,0,0,0,0,0,0,0,0,-4.9186,-4.919,-4.9418,-4.942,-4.9421,-4.9541,-4.9543,-4.9544,-4.9552,-4.955,-4.9549,-4.9547,-4.9667,-4.9673,-4.9678,0,0,0,0,0,0,0,0,0,0,0,0,0,-4.9295,-4.9191,-4.9418,-4.944,-4.9443,-4.9541,-4.9543,-4.9545,-4.9553,-4.955,-4.9548,-4.9546,-4.9666,-4.9672,-4.9679,-4.9762,0,0,-4.9699,-4.9702,0,0,0,0,0,0,0,0,-4.9289,-4.9304,-4.9435,-4.9438,-4.9442,-4.9529,-4.9505,-4.9617,-4.9553,-4.9511,-4.9548,-4.9545,-4.9624,-4.9634,-4.9661,-4.9767,-4.9773,-4.97,-4.9704,-4.9707,-4.9709,0,0,0,0,0,0,0,-4.9282,-4.9299,-4.9467,-4.9437,-4.9441,-4.9442,-4.9455,-4.9526,-4.9577,-4.9514,-4.9515,-4.953,-4.9625,-4.9655,-4.9664,-4.9774,-4.97,-4.9706,-4.971,-4.9713,-4.9956,-4.9958,0,0,0,0,0,0,-4.927,-4.9292,-4.9463,-4.947,-4.9359,-4.9448,-4.9463,-4.9503,-4.9576,-4.9586,-4.9532,-4.953,-4.9644,-4.9656,-4.9668,-4.9771,-4.9707,-4.9713,-4.9717,-4.9953,-4.9956,-4.9959,0,0,0,0,0,0,-4.9265,-4.9286,-4.9458,-4.9382,-4.9404,-4.9454,-4.9499,-4.9507,-4.9536,-4.959,-4.9598,-4.9553,-4.9643,-4.9659,-4.9739,-4.9775,-4.9716,-4.9722,-4.995,-4.9954,-4.9957,-4.9976,0,0,0,0,0,0,-4.9259,-4.9284,-4.9317,-4.9382,-4.9408,-4.9528,-4.9502,-4.9511,-4.9549,-4.9547,-4.9612,-4.962,-4.9643,-4.9729,-4.9746,-4.9783,-4.9728,-4.9947,-4.9952,-4.9956,-4.9973,-4.998,-4.9987,0,0,0,0,0,-4.925,-4.9316,-4.9318,-4.9339,-4.945,-4.953,-4.9544,-4.957,-4.9551,-4.9584,-4.9619,-4.9618,-4.9769,-4.9737,-4.9756,-4.9796,-4.9945,-4.9951,-4.9956,-4.997,-4.9979,-4.9986,0,0,0,0,0,0,-4.925,-4.9325,-4.9328,-4.9417,-4.9467,-4.9531,-4.9573,-4.9579,-4.9634,-4.963,-4.9659,-4.9673,-4.9753,-4.9782,-4.9746,-4.9881,-4.9855,-4.9864,-4.9859,-4.9868,-4.9874,-4.9865,-4.9733,0,0,0,0,0,-4.9261,-4.9321,-4.9382,-4.9454,-4.948,-4.9522,-4.9558,-4.9574,-4.9626,-4.9647,-4.9687,-4.9737,-4.9795,-4.9833,-4.989,-4.9977,-4.9991,-5.0014,-5.0021,-5.0027,-5.0034,-5.0084,-5.0095,-4.9977,-4.9977,-4.9976,0,0,-4.9283,-4.9331,-4.9367,-4.9456,-4.9496,-4.9557,-4.954,-4.9604,-4.9649,-4.9656,-4.9735,-4.9766,-4.9823,-4.9908,-4.9947,-4.9935,-5.007,-5.0034,-5.0038,-5.0042,-5.009,-5.0101,-5.0111,-4.998,-4.998,-4.9979,0,0,-4.9354,-4.9397,-4.9462,-4.9504,-4.9567,-4.9595,-4.9611,-4.9675,-4.9696,-4.9776,-4.9783,-4.9836,-4.9936,-4.9977,-5.0011,-5.01,-5.0101,-5.0117,-5.0153,-5.0201,-5.021,-5.0218,-5.025,-5.0261,-5.0125,-5.0125,-5.0125,0,-4.9373,-4.9466,-4.9494,-4.956,-4.9599,-4.961,-4.9676,-4.9715,-4.9792,-4.9818,-4.9805,-4.9932,-4.9971,-5.0066,-5.0088,-5.0114,-5.0133,-5.011,-5.0207,-5.0215,-5.0223,-5.0254,-5.0266,-5.0126,-5.0126,-5.0126,-5.0126,0,-4.9486,-4.955,-4.9595,-4.9673,-4.9716,-4.9781,-4.9819,-4.986,-4.9873,-4.9902,-4.9983,-5.0031,-5.0098,-5.0122,-5.0134,-5.0219,-5.021,-5.0201,-5.0175,-5.0236,-5.0265,-5.0277,-5.0129,-5.0128,-5.0128,-5.0127,0,0,-4.9559,-4.9653,-4.9669,-4.9705,-4.9776,-4.9825,-4.9891,-4.9959,-4.9993,-5.0046,-5.0102,-5.0187,-5.018,-5.0219,-5.0235,-5.0277,-5.0345,-5.0264,-5.0265,-5.0277,-5.0442,-5.0448,-5.0461,-5.0347,-5.0349,-5.0351,-5.0437,0,-4.9638,-4.9757,-4.9786,-4.9887,-4.9947,-4.996,-5.0017,-5.0066,-5.0095,-5.0149,-5.0181,-5.0242,-5.0228,-5.0251,-5.0293,-5.0328,-5.0378,-5.0322,-5.0397,-5.04,-5.0383,-5.0476,-5.0482,-5.0561,-5.0448,-5.045,-5.0452,0,-4.9746,-4.9804,-4.9912,-4.9977,-5.0003,-5.0054,-5.0119,-5.0171,-5.0227,-5.0245,-5.0289,-5.0302,-5.037,-5.0342,-5.0435,-5.0397,-5.0429,-5.0451,-5.0455,-5.0462,-5.0429,-5.0486,-5.0587,-5.0599,-5.047,-5.0469,-5.0467,0,-4.9789,-4.9894,-4.9973,-5.0003,-5.008,-5.0116,-5.0149,-5.0203,-5.0243,-5.0299,-5.0325,-5.0387,-5.0422,-5.047,-5.0499,-5.0475,-5.059,-5.0564,-5.0607,-5.0606,-5.063,-5.0628,-5.0737,-5.0651,-5.0651,-5.0651,-5.0651,0,-4.9874,-4.994,-4.9993,-5.0042,-5.0115,-5.0147,-5.0219,-5.0252,-5.0301,-5.0355,-5.0369,-5.0419,-5.0455,-5.051,-5.0533,-5.0608,-5.0623,-5.0639,-5.0644,-5.0638,-5.0636,-5.0659,-5.0654,-5.0654,-5.0653,-5.0653,-5.0652,0,-4.9934,-4.9973,-5.006,-5.0126,-5.0145,-5.0196,-5.0253,-5.03,-5.033,-5.0399,-5.0416,-5.0464,-5.0529,-5.0564,-5.0645,-5.0661,-5.0744,-5.0746,-5.0726,-5.0728,-5.0769,-5.0765,-5.0897,-5.0916,-5.0817,-5.0818,-5.0819,0,-4.9986,-5.0037,-5.011,-5.0149,-5.0184,-5.0245,-5.0286,-5.0319,-5.0361,-5.043,-5.0468,-5.0535,-5.059,-5.0695,-5.0735,-5.0798,-5.0801,-5.0844,-5.0811,-5.0803,-5.0802,-5.0799,-5.0804,-5.0849,-5.085,-5.0851,-5.0851,0,-5.0074,-5.0091,-5.015,-5.0217,-5.0266,-5.032,-5.0372,-5.0403,-5.0444,-5.0491,-5.0559,-5.0602,-5.0687,-5.0753,-5.0819,-5.0852,-5.0859,-5.0862,-5.0875,-5.0868,-5.0855,-5.0863,-5.0742,-5.0858,-5.0857,-5.0857,-5.0856,-5.0856,-5.0131,-5.0178,-5.0237,-5.0303,-5.0347,-5.0396,-5.0444,-5.0482,-5.054,-5.0613,-5.0629,-5.0701,-5.0756,-5.0846,-5.0881,-5.0938,-5.0929,-5.0948,-5.0953,-5.0957,-5.0959,-5.0846,-5.095,-5.0949,-5.0949,-5.0949,-5.0949,0,-5.022,-5.0259,-5.032,-5.0395,-5.0447,-5.0451,-5.051,-5.0552,-5.0616,-5.0668,-5.0723,-5.0802,-5.0867,-5.0914,-5.0979,-5.1015,-5.102,-5.1031,-5.1029,-5.1037,-5.0963,-5.0945,-5.1027,-5.1027,-5.1027,-5.1027,-5.1027,-5.1027,-5.0272,-5.0352,-5.0376,-5.0477,-5.0515,-5.0588,-5.0621,-5.0667,-5.0709,-5.0797,-5.0852,-5.0882,-5.0932,-5.1002,-5.1061,-5.1073,-5.1096,-5.1108,-5.112,-5.105,-5.1042,-5.1034,-5.1017,-5.1113,-5.1113,-5.1189,-5.119,-5.119]}]]